Wetbulb
64.99 61.59 60.55 58.14 53.46 54.47 52.36 53.76 57.69 55.99 58.16 64.92 65.86 65.08 63.91 66.42 64.63 63.65 75.53 76.63 77.67 77.65 76.42 76.17 77.11 77.44 77.59 77.39 77.09 76.78 76.41 76.28 76.48 76.84 77.06 76.71 76.66 75.81 75.17 75.28 75.14 75.09 74.89 74.49 74.26 74.15 73.80 74.17 74.01
61.45 57.89 57.11 56.82 50.09 50.03 51.83 55.99 55.33 57.34 61.84 62.28 63.11 65.44 64.59 62.56 69.34 72.16 74.12 76.70 77.86 77.42 75.70 74.91 76.81 77.04 77.29 77.08 76.98 76.78 76.80 76.83 76.80 76.80 76.51 76.13 75.78 75.17 74.62 75.09 74.93 75.03 74.78 74.52 74.39 74.18 74.32 74.28 74.31
59.21 58.13 51.99 50.93 49.42 48.59 51.98 55.85 56.99 58.30 62.05 61.38 60.75 65.27 65.03 65.15 70.20 72.18 75.81 77.69 77.89 76.26 75.23 75.62 76.61 76.78 76.88 76.90 76.78 76.65 76.62 76.47 76.45 76.31 75.91 75.76 74.98 74.95 75.48 75.33 75.21 74.97 74.93 75.11 75.04 74.92 74.43 73.79 73.32
55.43 54.28 53.13 46.78 45.67 50.38 53.70 56.97 58.11 57.94 61.25 63.03 62.91 61.64 68.54 72.68 71.73 74.35 76.25 77.30 77.07 76.17 75.48 75.88 76.38 76.48 76.45 76.38 76.37 76.45 76.45 76.40 76.23 75.83 75.18 74.75 74.52 74.98 75.41 75.30 75.24 75.23 75.50 75.33 75.29 74.57 73.60 73.36 73.06
55.29 52.51 46.63 44.88 45.98 49.59 53.47 56.63 57.72 57.27 58.22 60.77 64.01 62.37 66.19 72.60 75.75 76.26 76.32 76.55 76.09 75.38 75.62 75.67 76.23 76.25 76.38 76.36 76.28 76.18 76.33 76.25 76.08 75.91 75.25 74.50 74.40 74.88 75.13 75.10 75.29 75.46 75.40 75.40 74.91 74.21 73.42 72.95 73.05
50.28 50.94 45.36 44.03 46.20 48.99 52.59 55.37 56.93 57.90 58.83 61.18 63.40 63.81 67.05 74.31 75.32 76.08 76.68 76.35 76.27 74.96 75.15 75.17 76.00 75.85 75.88 75.88 75.68 75.67 75.74 75.74 75.75 75.63 75.18 74.53 74.21 74.20 74.35 74.52 74.59 74.46 74.13 73.95 73.72 73.41 73.23 72.93 72.89
49.71 47.81 45.01 46.35 46.75 48.13 50.34 54.99 54.19 56.58 58.32 58.31 61.28 59.49 68.36 71.34 75.59 76.82 76.56 76.09 76.23 75.33 74.29 74.19 74.65 75.27 75.68 75.62 75.45 75.39 75.47 75.49 75.41 75.36 74.97 74.75 74.06 74.08 74.13 74.10 73.93 73.75 73.52 73.37 73.41 73.52 73.48 73.53 73.28
52.09 49.69 45.84 46.60 46.02 47.04 51.51 52.98 55.73 56.36 57.17 60.89 60.66 56.90 59.77 71.67 75.31 76.81 76.54 76.15 75.59 75.74 75.22 73.98 73.76 73.19 73.18 73.99 75.72 75.44 75.67 75.76 75.40 75.16 74.80 74.55 73.98 73.63 73.55 73.71 73.50 73.20 73.12 73.09 72.99 73.02 73.08 73.46 73.48
52.96 46.18 44.81 46.38 46.03 47.91 51.49 51.03 54.63 57.37 57.40 59.17 60.12 59.79 69.26 74.49 74.72 74.80 74.88 75.27 75.43 75.48 75.22 74.38 73.15 73.13 72.79 72.31 74.90 75.51 75.33 75.34 75.36 74.73 74.13 73.07 72.86 72.85 72.31 72.05 71.20 72.13 72.61 72.77 72.85 72.93 73.66 73.76 73.26
48.67 45.93 46.90 50.52 50.30 48.94 50.71 50.12 51.60 51.36 52.65 55.17 58.16 65.26 71.49 73.90 73.54 72.80 72.33 72.81 73.85 74.36 74.69 74.85 74.28 74.00 73.62 71.97 73.51 73.41 74.58 74.53 74.20 74.35 73.97 73.08 73.51 73.77 73.02 72.56 71.82 72.67 72.67 73.38 73.48 73.86 73.93 73.55 73.75
50.21 46.04 50.18 50.86 50.15 50.68 50.02 50.07 53.02 51.41 50.42 53.46 55.24 59.87 70.03 72.03 73.35 72.75 72.47 72.93 73.50 74.24 75.11 74.93 75.07 74.97 74.37 73.73 72.77 72.71 72.73 73.35 74.09 74.51 74.76 74.49 73.40 73.40 72.97 73.77 72.67 73.70 73.16 74.05 74.70 75.20 74.81 74.39 74.69
47.41 50.04 49.88 49.99 50.48 49.98 49.25 51.63 50.72 51.82 53.03 56.85 60.19 64.46 70.69 70.81 72.10 73.09 72.96 72.97 73.18 73.80 74.12 75.44 75.66 74.94 74.78 74.83 74.08 73.96 73.52 73.42 72.97 73.47 74.55 73.89 72.92 73.52 73.57 72.49 72.24 74.48 75.03 74.97 74.99 74.36 74.99 75.33 74.99
47.31 49.65 50.48 49.84 49.43 50.07 50.91 49.40 50.49 51.35 54.19 57.23 56.24 61.09 70.63 71.35 71.90 73.29 74.11 74.07 74.14 73.58 74.39 75.33 75.91 75.31 75.05 75.24 73.96 74.55 74.48 73.93 74.03 74.02 74.17 73.98 73.51 73.85 73.37 73.36 71.91 71.89 74.43 74.47 74.48 75.22 75.50 75.20 74.81
48.19 48.53 49.99 50.97 50.32 50.54 48.83 49.64 50.57 51.73 54.29 54.09 54.81 56.09 63.94 71.26 72.21 73.16 73.47 73.41 73.71 73.79 73.57 74.64 74.89 75.51 75.08 74.69 75.43 74.85 75.21 75.33 75.14 74.92 74.80 74.47 73.33 73.80 73.19 72.76 71.17 70.97 72.26 73.53 74.55 75.87 75.58 75.66 75.67
47.63 45.28 47.71 49.35 50.54 49.42 50.63 47.35 48.35 52.43 54.03 53.49 53.88 55.02 58.55 64.60 71.78 72.51 73.82 73.36 73.81 73.82 74.33 74.43 74.98 75.15 75.62 75.55 75.09 75.04 75.10 75.29 75.25 75.37 75.31 74.35 74.27 73.88 73.40 73.40 73.05 72.67 73.23 74.17 76.49 76.22 76.09 75.12 74.39
44.28 45.13 41.75 47.21 48.75 50.26 49.66 44.98 50.17 52.86 52.76 52.62 53.43 54.23 55.42 66.75 69.60 73.01 73.94 74.42 74.37 74.21 73.67 74.66 74.23 74.42 74.41 76.04 75.70 74.88 75.51 75.56 75.17 74.74 74.29 73.82 73.71 74.04 75.10 75.45 73.85 73.35 74.27 76.56 75.19 75.25 73.60 73.71 72.15
43.45 39.06 40.28 43.23 48.51 48.53 48.38 46.11 50.84 53.56 52.79 52.20 53.36 53.93 55.11 63.16 69.94 72.68 73.97 74.30 74.23 74.22 74.30 73.40 73.40 73.17 73.97 76.32 75.90 75.71 75.95 73.89 73.48 73.74 74.32 74.15 73.62 73.70 74.93 74.56 73.42 73.93 73.09 74.01 73.03 72.24 72.75 71.81 72.42
38.52 38.88 40.75 40.84 45.12 46.94 46.65 46.67 50.36 51.56 52.18 52.52 53.30 54.00 54.88 59.91 68.62 72.33 72.98 73.89 73.96 73.89 73.78 73.24 73.09 73.97 75.10 75.32 74.97 73.42 72.54 72.41 74.58 75.10 75.38 76.30 75.49 75.64 75.33 73.97 72.19 72.10 71.16 70.44 69.70 70.11 70.89 71.29 71.30
41.71 40.67 40.10 43.15 46.30 45.26 45.49 46.33 49.17 51.70 51.45 51.92 52.86 53.89 55.09 57.24 65.87 71.17 72.23 72.76 73.09 73.45 72.82 73.46 73.07 73.94 73.86 73.01 70.61 71.00 70.77 73.71 73.44 74.07 74.85 74.19 74.36 74.18 74.98 72.24 70.46 70.78 70.69 70.42 69.96 70.58 70.38 69.84 71.77
41.35 39.76 40.13 43.16 45.75 45.96 45.29 45.35 49.35 51.73 51.72 52.75 53.04 53.86 55.26 59.13 64.16 69.67 71.41 71.36 71.45 72.26 72.45 72.65 72.59 73.60 73.21 72.79 73.88 74.83 74.42 73.45 73.00 72.79 72.37 72.59 70.93 72.31 71.78 72.94 69.65 68.76 69.90 69.67 69.30 69.09 68.81 68.88 69.81
40.75 39.48 39.65 39.56 43.12 46.25 45.11 44.27 46.39 50.21 52.85 53.63 54.01 54.75 57.03 60.98 65.79 68.80 69.99 70.07 71.35 71.26 71.91 71.94 72.71 72.98 73.62 75.16 75.36 73.95 73.33 72.51 71.86 71.78 70.59 71.04 70.59 70.89 71.21 69.94 69.74 68.09 68.96 65.67 65.95 66.55 66.77 65.02 65.75
37.11 41.87 40.69 39.88 39.49 37.52 45.53 38.88 45.32 48.21 50.10 52.21 53.49 54.54 58.73 62.61 66.90 69.05 69.19 69.99 69.60 70.67 71.94 72.43 72.73 73.27 73.89 74.83 74.58 74.39 72.69 71.02 71.37 71.11 68.94 68.01 68.91 68.66 67.39 67.19 66.89 64.39 64.31 63.67 62.87 61.97 61.95 61.85 59.64
38.68 41.41 40.83 40.87 39.92 40.77 42.20 40.40 45.12 47.94 47.87 50.79 52.82 54.01 61.23 64.56 66.39 68.64 69.96 70.99 71.66 71.40 71.38 72.15 72.90 73.53 73.99 74.28 74.52 72.96 72.35 71.86 71.26 69.27 66.65 65.40 65.09 64.48 63.97 63.77 63.11 62.52 61.63 61.05 60.47 60.06 60.67 59.65 58.64
42.93 40.18 40.90 41.92 40.83 34.72 40.55 41.35 42.91 45.88 48.10 51.32 52.75 54.00 63.33 65.40 67.42 68.48 71.42 71.62 70.02 70.56 69.26 70.31 71.57 72.25 73.27 74.41 74.27 73.25 72.45 71.32 66.41 66.51 64.59 63.37 61.81 60.92 61.93 60.56 60.64 60.95 60.41 60.06 59.94 60.53 60.19 59.50 59.12
41.72 38.70 33.74 32.24 33.54 33.75 42.07 40.18 43.76 48.93 50.69 52.80 52.45 53.74 63.61 66.40 67.86 70.04 70.38 69.66 70.39 69.92 69.97 70.93 71.50 71.53 72.60 73.31 72.68 72.38 72.03 69.32 67.90 67.48 64.78 64.43 62.03 61.08 60.06 60.52 59.97 59.35 59.92 59.91 60.23 59.67 59.32 58.58 57.75
39.80 40.11 35.85 26.21 30.66 35.45 41.88 37.19 43.33 50.58 52.85 54.25 54.28 55.60 64.25 66.82 68.76 69.75 70.18 70.58 70.00 70.07 70.44 70.85 70.90 69.89 71.03 72.16 71.43 71.01 69.92 67.93 66.19 65.80 64.27 62.40 60.75 59.07 59.57 59.24 59.22 59.03 58.64 58.60 58.77 58.30 57.71 58.38 57.98
39.70 36.47 42.62 36.74 39.21 36.23 39.23 43.43 47.52 50.06 51.50 52.97 53.26 56.52 63.80 65.99 68.44 68.66 69.97 70.15 70.13 70.11 69.97 69.64 68.80 68.28 69.54 69.83 70.12 68.97 68.53 67.07 64.57 64.25 63.49 60.99 60.36 58.77 58.71 58.87 58.60 58.25 58.46 58.65 59.03 57.84 58.47 58.97 58.77
41.46 43.21 35.11 37.21 29.50 29.88 37.15 39.37 41.43 46.45 49.26 51.59 52.64 57.64 64.80 66.80 67.28 68.30 69.44 69.20 69.73 69.14 68.79 68.57 68.89 68.92 69.43 68.86 67.75 66.31 65.13 64.29 63.54 62.83 61.17 59.92 59.05 58.65 57.77 57.61 57.44 57.12 57.03 57.67 58.96 58.56 58.47 58.74 58.65
38.87 38.42 39.38 39.93 37.88 33.35 33.46 38.41 48.01 49.24 51.08 51.42 53.19 60.19 65.05 66.03 65.77 67.83 67.94 65.79 66.77 67.70 67.83 67.32 67.50 67.31 66.64 65.82 64.96 64.13 63.27 63.26 62.48 60.56 59.57 58.95 58.71 58.10 57.45 56.91 56.75 56.56 56.72 57.13 57.72 58.00 58.66 57.96 58.19
42.31 40.26 40.47 34.82 34.40 38.66 39.87 40.42 49.12 51.52 52.40 53.26 55.89 63.30 66.45 66.38 66.95 66.69 62.90 63.11 64.47 65.10 65.83 65.47 66.06 65.17 64.68 64.11 63.44 62.52 62.17 61.12 59.90 59.05 58.67 58.76 57.76 57.75 57.00 56.60 56.43 56.69 57.12 57.84 57.27 56.90 57.29 57.41 57.36
MSLP
1011.94 1011.06 1010.53 1009.37 1007.67 1004.83 1001.99 1000.76 1000.83 1000.57 1000.87 1001.48 1002.07 1002.06 1001.87 1002.43 1002.23 1003.08 1004.65 1005.31 1005.77 1006.96 1008.06 1009.23 1009.62 1010.09 1010.39 1010.83 1011.33 1011.75 1012.15 1012.45 1012.96 1013.28 1013.61 1013.96 1014.11 1014.38 1014.65 1014.79 1014.83 1014.89 1014.99 1015.14 1015.24 1015.38 1015.44 1015.39 1015.42
1011.07 1010.78 1009.89 1007.59 1005.82 1002.63 1001.00 1000.40 1000.41 1000.34 1000.53 1001.81 1002.23 1002.58 1002.45 1002.36 1003.33 1004.37 1004.88 1005.77 1006.32 1007.28 1008.28 1008.95 1009.84 1010.16 1010.58 1010.97 1011.47 1011.82 1012.41 1012.82 1013.23 1013.57 1013.87 1014.21 1014.35 1014.59 1014.86 1014.92 1014.96 1015.08 1015.24 1015.43 1015.54 1015.65 1015.77 1015.81 1015.85
1011.28 1010.52 1008.34 1006.48 1004.30 1001.59 1000.16 999.90 1000.26 1000.15 1001.33 1001.66 1001.77 1002.43 1002.22 1002.85 1003.95 1004.49 1005.13 1005.77 1006.53 1007.71 1008.17 1009.11 1010.08 1010.32 1010.77 1011.28 1011.77 1012.03 1012.40 1012.98 1013.58 1013.85 1014.11 1014.42 1014.67 1014.84 1014.95 1015.16 1015.23 1015.45 1015.61 1015.69 1015.86 1015.98 1016.03 1016.03 1016.04
1010.49 1009.85 1008.20 1005.34 1002.43 1001.64 1000.61 999.68 1000.38 1000.15 1001.12 1001.72 1001.89 1001.79 1002.95 1004.01 1004.05 1004.62 1005.76 1005.93 1006.71 1007.20 1008.05 1009.76 1010.31 1010.63 1010.92 1011.49 1011.97 1012.22 1012.64 1013.10 1013.65 1014.13 1014.48 1014.69 1014.98 1015.15 1015.31 1015.51 1015.66 1015.72 1015.87 1015.98 1016.01 1016.03 1016.08 1016.14 1016.11
1010.06 1007.88 1006.11 1004.25 1002.41 1001.41 1001.08 1000.42 1000.78 1000.34 1000.39 1000.79 1001.99 1001.58 1002.51 1004.00 1004.63 1005.23 1005.98 1006.35 1006.63 1007.26 1008.12 1009.69 1010.62 1010.88 1011.16 1011.59 1012.04 1012.39 1012.87 1013.38 1013.81 1014.23 1014.61 1014.91 1015.20 1015.42 1015.56 1015.71 1015.84 1015.90 1015.97 1016.04 1016.11 1016.13 1016.08 1016.03 1015.99
1008.73 1007.07 1004.51 1002.73 1001.91 1001.46 1001.39 1001.71 1001.27 1000.65 1000.23 1000.70 1001.73 1002.27 1002.86 1004.36 1004.63 1005.34 1006.02 1006.51 1006.88 1007.47 1008.46 1009.59 1011.01 1011.11 1011.48 1011.84 1012.15 1012.59 1013.15 1013.63 1014.05 1014.45 1014.79 1015.20 1015.45 1015.68 1015.89 1015.98 1015.99 1016.02 1016.10 1016.21 1016.32 1016.31 1016.22 1016.12 1015.98
1007.74 1006.14 1003.89 1002.52 1001.43 1000.97 1001.26 1001.95 1001.10 1000.73 1000.27 1000.45 1001.21 1001.66 1003.24 1004.43 1004.81 1005.44 1006.20 1006.83 1007.38 1008.07 1008.61 1009.58 1010.49 1011.33 1011.81 1012.17 1012.49 1012.98 1013.41 1013.92 1014.34 1014.71 1014.99 1015.42 1015.72 1015.89 1015.96 1016.02 1016.07 1016.14 1016.27 1016.28 1016.18 1016.17 1016.15 1015.99 1015.78
1008.07 1006.06 1004.04 1002.34 1001.15 1000.41 1001.55 1001.62 1001.41 1001.03 1000.28 1000.64 1001.74 1001.19 1001.72 1003.93 1005.18 1005.40 1006.12 1006.84 1007.40 1007.99 1008.49 1009.27 1010.07 1010.84 1011.47 1012.20 1012.87 1013.35 1013.68 1014.14 1014.55 1014.98 1015.16 1015.36 1015.64 1015.83 1015.98 1016.07 1016.18 1016.21 1016.16 1016.19 1016.24 1016.16 1016.03 1015.83 1015.57
1008.93 1006.40 1003.24 1001.86 1001.73 1001.32 1001.37 1001.70 1001.33 1001.38 1001.20 1001.09 1001.31 1001.73 1002.79 1004.60 1005.47 1005.37 1005.66 1006.32 1007.01 1007.69 1008.40 1008.93 1009.46 1010.40 1010.81 1011.69 1012.95 1013.70 1014.06 1014.48 1014.71 1015.04 1015.27 1015.17 1014.46 1015.07 1015.45 1015.68 1016.04 1016.14 1016.11 1016.04 1015.83 1015.74 1015.67 1015.48 1015.00
1008.18 1005.89 1003.33 1002.43 1002.24 1001.87 1001.52 1001.81 1001.16 1001.32 1001.32 1001.27 1001.27 1002.32 1003.80 1004.95 1005.59 1005.42 1005.33 1005.65 1006.35 1007.20 1008.16 1008.70 1009.11 1010.07 1010.65 1011.56 1012.84 1012.93 1013.50 1013.81 1013.93 1014.09 1014.66 1014.10 1014.56 1014.75 1014.91 1015.46 1015.96 1016.02 1015.96 1015.81 1015.67 1015.50 1015.36 1014.98 1013.49
1007.89 1005.68 1004.47 1003.23 1003.57 1003.03 1002.10 1001.91 1001.15 1001.05 1000.51 1000.60 1000.78 1001.62 1003.62 1004.70 1005.08 1005.44 1005.42 1005.53 1006.00 1006.88 1007.78 1008.61 1009.46 1010.06 1010.51 1011.15 1011.93 1012.32 1012.79 1013.19 1013.65 1013.96 1014.36 1014.38 1014.57 1014.79 1014.69 1014.52 1014.59 1014.80 1015.27 1014.60 1014.59 1014.35 1013.97 1013.88 1013.75
1007.98 1006.81 1005.91 1004.60 1004.59 1004.07 1003.07 1002.47 1001.58 1001.71 1000.67 1000.63 1001.86 1002.52 1003.35 1004.17 1004.44 1004.79 1005.15 1005.48 1006.17 1007.03 1007.96 1008.63 1009.53 1010.08 1010.44 1010.95 1011.47 1011.95 1012.13 1012.80 1013.19 1013.61 1014.40 1014.45 1014.50 1014.75 1014.84 1014.35 1014.45 1014.64 1014.44 1014.69 1014.30 1013.91 1014.01 1013.97 1013.67
1008.04 1007.07 1006.82 1006.23 1005.11 1004.85 1003.94 1003.00 1002.47 1001.63 1001.55 1001.76 1002.55 1003.06 1003.33 1004.12 1004.13 1004.50 1004.85 1005.60 1006.32 1007.12 1007.96 1008.59 1009.49 1010.15 1010.61 1011.29 1011.36 1011.77 1012.06 1012.50 1012.86 1013.61 1014.10 1014.12 1014.19 1014.65 1014.62 1014.61 1014.70 1014.78 1014.65 1014.47 1014.28 1013.89 1013.72 1013.74 1013.25
1007.65 1007.41 1006.81 1006.26 1005.44 1005.05 1004.39 1003.30 1002.53 1002.08 1002.17 1002.30 1002.62 1002.63 1002.96 1003.40 1003.97 1004.52 1004.88 1005.55 1006.42 1007.42 1008.30 1008.70 1009.74 1010.52 1011.11 1011.40 1011.67 1012.16 1012.32 1012.62 1013.00 1013.26 1013.58 1014.23 1014.18 1014.44 1014.44 1014.50 1014.52 1014.76 1014.81 1014.73 1014.57 1014.18 1014.11 1013.69 1013.29
1008.28 1007.93 1007.25 1006.28 1005.61 1004.84 1004.66 1003.37 1001.57 1001.93 1001.45 1002.12 1002.48 1002.76 1002.70 1002.68 1003.58 1004.38 1004.95 1005.80 1006.79 1007.74 1008.62 1009.03 1009.89 1010.64 1011.38 1011.53 1012.02 1012.08 1012.28 1012.38 1012.71 1013.04 1013.81 1014.09 1014.23 1014.43 1014.61 1014.40 1014.55 1014.74 1014.92 1014.76 1014.35 1014.29 1014.07 1013.84 1013.77
1008.38 1007.75 1005.98 1005.32 1005.28 1004.73 1004.75 1001.62 1001.84 1001.77 1001.76 1001.78 1002.08 1002.26 1002.74 1002.82 1003.30 1004.29 1004.99 1005.94 1006.83 1007.74 1008.68 1009.46 1009.85 1010.87 1011.66 1011.68 1011.86 1011.88 1012.18 1012.43 1012.79 1013.17 1013.46 1013.87 1014.03 1014.29 1014.49 1014.55 1014.76 1015.08 1014.62 1014.89 1015.10 1015.33 1014.82 1014.48 1013.49
1007.41 1005.78 1005.45 1004.50 1004.36 1004.34 1003.95 1002.28 1001.75 1000.99 1000.90 1001.14 1001.32 1001.68 1001.92 1002.71 1003.47 1004.17 1005.11 1005.94 1006.93 1007.82 1008.74 1009.63 1010.21 1011.38 1011.72 1011.73 1011.72 1011.93 1012.76 1012.44 1012.87 1013.17 1013.30 1013.83 1013.85 1014.18 1014.47 1014.72 1015.11 1015.40 1014.68 1014.18 1014.81 1015.21 1015.28 1014.82 1013.97
1005.91 1005.94 1004.92 1004.21 1003.89 1003.94 1003.03 1002.66 1001.70 1001.31 1000.94 1000.80 1001.00 1001.13 1001.45 1002.41 1002.93 1004.07 1005.13 1005.90 1007.00 1007.77 1008.88 1009.95 1010.56 1011.01 1011.29 1011.51 1011.70 1011.82 1012.32 1012.57 1012.82 1013.67 1013.86 1013.76 1013.91 1014.09 1014.22 1014.60 1014.70 1014.43 1014.74 1014.26 1012.93 1015.13 1015.14 1015.13 1014.47
1007.55 1006.68 1005.38 1004.58 1004.18 1003.89 1002.74 1002.35 1001.60 1001.37 1001.01 1000.55 1000.48 1000.74 1001.07 1001.87 1003.38 1003.85 1005.03 1006.19 1007.10 1007.91 1008.89 1009.55 1010.29 1010.81 1011.00 1010.96 1010.88 1011.43 1011.83 1012.70 1013.61 1013.81 1013.93 1013.82 1013.77 1013.88 1013.73 1013.67 1014.28 1014.30 1013.64 1014.25 1013.23 1015.58 1015.32 1015.20 1014.68
1008.05 1007.10 1006.07 1005.53 1005.08 1004.65 1003.15 1002.03 1001.54 1001.01 1000.68 1000.50 1000.34 1000.46 1000.81 1001.16 1002.31 1003.38 1004.67 1005.83 1006.91 1007.83 1008.62 1009.34 1009.95 1010.62 1010.60 1010.68 1010.76 1011.20 1012.00 1013.05 1013.74 1013.85 1014.14 1014.29 1014.43 1014.56 1014.71 1014.73 1015.20 1015.20 1014.14 1014.35 1014.56 1015.99 1016.06 1015.28 1014.64
1007.93 1007.22 1006.32 1005.80 1004.85 1004.54 1003.71 1001.88 1000.99 1000.46 1000.34 1000.17 1000.19 1000.12 1000.18 1000.53 1001.43 1002.91 1004.22 1005.38 1006.29 1007.51 1008.44 1009.10 1009.78 1010.24 1010.37 1010.90 1011.55 1012.36 1013.04 1013.37 1013.48 1013.68 1014.20 1014.83 1014.94 1015.01 1015.16 1015.47 1015.52 1015.23 1015.39 1015.04 1015.60 1016.52 1016.42 1015.47 1014.63
1007.55 1007.42 1007.30 1006.48 1005.40 1002.99 1002.49 999.69 998.94 999.40 998.99 998.97 999.26 999.73 999.60 1000.02 1001.27 1002.39 1003.80 1004.76 1006.28 1007.13 1008.18 1009.10 1009.57 1010.17 1010.63 1011.01 1011.20 1011.66 1011.87 1012.23 1012.69 1013.11 1014.99 1015.49 1015.58 1015.55 1015.58 1016.26 1015.84 1015.97 1015.65 1015.25 1016.35 1017.03 1016.84 1016.51 1015.52
1007.87 1007.79 1007.13 1006.30 1005.08 1003.52 1001.88 1000.78 997.01 997.69 997.77 997.45 997.99 998.78 999.05 999.66 1000.67 1001.75 1003.20 1004.67 1005.50 1006.68 1008.24 1008.88 1009.43 1010.10 1010.51 1010.88 1011.17 1011.72 1011.79 1012.15 1013.22 1014.41 1015.29 1015.81 1016.22 1016.51 1016.35 1016.77 1016.35 1016.36 1016.13 1016.41 1017.11 1017.22 1017.33 1016.68 1016.63
1008.44 1008.00 1007.15 1006.20 1004.71 1002.78 1001.19 999.96 996.33 995.82 996.11 996.15 996.73 997.95 998.70 999.53 1000.43 1001.70 1002.74 1004.44 1006.63 1007.88 1008.99 1008.74 1009.51 1009.87 1010.54 1011.07 1011.46 1011.68 1012.10 1012.66 1014.01 1014.66 1015.25 1015.94 1016.34 1016.83 1017.04 1016.59 1017.00 1016.83 1016.95 1017.49 1017.50 1017.74 1017.81 1017.72 1017.61
1008.50 1007.62 1005.85 1004.91 1003.32 1000.96 999.84 999.35 996.78 995.03 995.24 995.16 995.57 997.00 998.29 999.47 1000.27 1001.31 1002.73 1004.67 1005.93 1007.01 1008.07 1007.78 1009.36 1010.15 1010.58 1010.98 1011.74 1012.08 1012.66 1013.53 1014.11 1014.47 1015.12 1015.53 1015.97 1016.42 1016.75 1017.19 1017.53 1017.49 1017.97 1017.95 1018.04 1018.37 1018.31 1018.18 1018.07
1007.60 1006.94 1004.66 1003.98 1002.07 1000.14 999.68 997.87 996.06 995.76 994.94 995.19 995.55 996.56 998.09 999.23 999.87 1001.24 1002.87 1004.18 1005.86 1006.62 1007.52 1008.49 1009.62 1010.72 1011.22 1011.62 1012.25 1012.74 1013.36 1013.53 1014.45 1015.01 1015.41 1015.63 1016.15 1016.97 1017.97 1018.04 1018.21 1018.28 1018.29 1018.36 1018.56 1018.66 1018.52 1018.69 1018.61
1006.91 1006.79 1005.85 1005.30 1002.57 999.90 997.99 997.42 996.14 995.59 995.32 994.81 995.02 996.22 997.71 999.21 1000.32 1002.05 1003.11 1004.39 1005.67 1006.58 1007.84 1008.95 1010.29 1010.99 1011.47 1012.00 1012.50 1013.16 1013.62 1014.22 1015.00 1015.53 1015.84 1016.48 1017.34 1017.92 1018.30 1018.59 1018.71 1018.63 1018.69 1018.86 1018.89 1019.00 1019.11 1018.97 1018.81
1006.92 1006.93 1006.63 1005.87 1002.63 999.79 997.32 995.90 994.84 994.57 994.67 994.76 994.71 996.24 997.82 999.66 1001.21 1002.64 1003.41 1004.44 1005.75 1007.15 1008.64 1009.91 1010.47 1011.10 1011.71 1012.31 1012.91 1013.67 1014.50 1015.03 1015.59 1016.25 1017.00 1017.59 1018.06 1018.44 1018.77 1018.97 1019.01 1019.18 1019.31 1019.40 1019.18 1019.05 1019.27 1019.18 1018.90
1007.04 1006.64 1005.88 1004.73 1002.76 999.85 997.12 995.01 994.37 993.52 994.23 994.41 994.64 996.34 998.29 999.94 1001.73 1003.12 1004.21 1005.91 1006.87 1007.75 1009.03 1009.88 1010.67 1011.40 1012.04 1012.81 1013.72 1014.20 1014.96 1015.74 1016.40 1017.08 1017.82 1018.27 1018.60 1018.88 1018.97 1019.08 1019.17 1019.43 1019.58 1019.55 1019.54 1019.60 1019.51 1019.36 1019.19
1006.20 1005.74 1005.31 1004.50 1002.63 1001.06 998.09 994.55 993.40 993.81 993.73 994.01 994.75 996.26 998.59 1000.46 1001.97 1003.94 1005.76 1006.80 1007.64 1008.44 1009.27 1010.11 1011.13 1011.77 1012.62 1013.41 1014.21 1014.91 1015.64 1016.46 1017.13 1017.82 1018.40 1018.78 1018.99 1019.10 1019.23 1019.33 1019.55 1019.52 1019.78 1019.91 1019.84 1019.75 1019.61 1019.37 1019.25
Wind_Speed
11 8 6 6 9 9 17 17 15 6 7 3 1 7 1 5 5 6 7 9 18 20 20 19 18 17 17 17 17 17 16 15 14 14 13 13 12 12 11 11 10 10 10 9 9 8 8 7 7
4 6 7 6 11 15 15 17 13 14 4 2 2 5 7 0 3 9 13 11 20 19 18 19 17 17 17 18 17 18 15 14 13 13 13 13 12 12 11 11 11 10 9 8 8 7 6 5 4
8 8 8 7 16 20 16 16 16 10 6 5 2 4 2 4 4 8 7 19 22 19 19 17 16 17 17 17 17 17 17 15 13 13 13 12 12 11 10 9 9 9 8 7 6 5 4 2 1
7 7 7 13 20 24 25 12 13 13 11 5 6 6 7 4 5 7 16 21 21 20 18 18 16 17 19 18 17 17 17 16 15 13 13 12 11 10 9 8 8 8 6 5 5 4 2 0 1
8 7 12 19 25 22 16 16 10 14 14 9 7 5 2 7 6 14 19 19 21 19 17 18 15 17 18 19 18 17 16 15 14 14 13 12 11 9 8 8 7 6 5 4 3 2 1 2 4
10 9 13 21 24 22 14 19 15 14 15 8 9 7 3 7 10 15 19 20 19 19 18 18 14 16 16 17 18 17 16 15 14 13 12 11 10 9 7 6 5 4 3 1 1 2 4 5 6
18 14 20 22 22 21 20 17 19 17 16 14 3 7 7 8 9 16 18 18 18 18 18 17 17 15 15 15 16 16 16 15 14 13 12 10 9 8 7 5 4 3 1 2 4 5 6 7 8
13 14 24 24 19 22 18 21 16 19 18 6 3 8 7 12 13 16 19 19 19 18 18 18 16 16 15 14 14 14 15 14 13 11 11 10 9 7 6 5 5 2 3 4 5 7 8 9 10
15 14 19 26 21 18 11 19 18 15 16 11 11 7 9 16 14 16 18 19 18 17 17 17 17 15 14 14 13 14 14 13 13 12 10 11 7 8 8 7 2 4 5 5 6 7 8 10 15
15 17 23 17 19 16 14 17 20 18 19 19 20 8 11 17 17 18 20 20 21 20 18 16 16 15 13 11 14 12 12 10 9 8 9 6 4 2 4 3 3 5 6 9 9 9 10 13 7
15 22 18 15 11 14 14 14 13 15 19 21 20 16 15 15 17 18 19 20 21 20 16 18 16 15 15 11 10 7 7 7 6 7 6 3 3 4 4 1 4 2 7 6 5 5 6 7 8
18 14 20 9 17 13 16 14 13 18 13 6 8 9 13 16 17 18 20 20 20 20 18 18 17 15 14 10 9 9 7 7 6 7 7 4 4 3 2 3 3 3 3 5 5 6 7 9 9
16 21 14 18 8 14 12 13 17 17 16 6 1 1 14 14 14 15 17 19 19 20 19 18 17 15 13 11 8 8 7 7 6 6 6 3 2 1 3 2 4 4 5 6 7 8 7 10 11
8 19 15 19 17 16 16 19 19 16 17 11 8 8 10 15 15 14 17 19 18 17 16 17 15 11 13 10 10 7 6 7 5 5 5 6 3 2 2 2 3 3 5 7 8 8 8 9 10
8 12 16 20 16 17 14 21 29 21 12 11 8 5 5 13 15 16 17 18 19 16 14 16 14 13 12 11 9 7 7 5 4 3 5 4 4 4 3 1 2 3 4 7 7 10 11 11 9
15 15 17 18 22 18 17 22 22 22 20 20 16 9 6 5 12 15 17 18 18 16 16 12 11 12 10 10 8 6 6 4 4 3 3 4 3 2 1 1 4 5 4 6 9 7 10 8 8
11 13 20 19 18 20 22 12 23 17 19 17 17 14 10 8 11 14 16 18 18 16 16 14 13 13 13 11 8 7 7 5 4 3 3 5 4 4 2 2 5 5 4 4 6 8 10 8 9
9 14 7 16 16 20 23 23 16 8 16 19 15 15 13 10 11 14 16 16 17 16 15 14 12 14 13 10 8 7 7 7 6 7 6 7 5 7 7 7 5 3 2 4 7 9 9 10 10
6 7 8 8 2 11 19 22 21 22 10 14 15 12 12 15 12 13 15 14 15 16 16 15 14 13 10 10 9 9 9 9 7 7 8 10 9 9 9 7 5 2 4 4 9 8 10 9 7
10 11 10 9 13 10 13 19 19 19 21 18 14 14 14 15 16 14 16 16 16 16 15 15 14 14 10 8 7 8 8 8 7 5 5 4 3 6 7 2 4 3 3 3 9 5 7 9 4
12 11 7 9 4 9 12 16 19 22 20 20 17 13 14 18 18 17 18 16 16 16 16 15 15 14 11 12 10 10 10 8 7 7 5 6 6 5 6 5 3 6 7 6 7 5 6 8 5
12 7 10 10 10 13 15 8 25 22 23 21 20 16 15 20 18 18 18 18 15 16 15 15 15 14 13 13 11 14 10 8 3 6 8 6 9 9 10 8 9 9 7 9 7 6 7 8 7
9 4 9 10 11 12 11 9 14 25 22 22 22 19 17 19 19 19 20 18 16 17 16 16 15 14 14 12 10 10 8 6 7 7 9 10 9 10 10 8 10 9 8 10 8 7 7 5 7
4 8 9 9 10 13 16 15 12 19 26 25 24 22 20 19 19 19 20 21 19 18 14 15 13 13 12 11 9 7 8 8 8 8 8 6 7 7 8 12 9 11 9 8 6 5 8 6 6
13 10 8 9 9 13 19 13 20 18 25 26 25 24 22 20 20 22 23 19 18 20 19 17 15 14 12 11 10 8 10 11 12 9 7 7 6 7 12 10 9 8 7 6 6 5 6 7 6
16 13 7 8 12 14 8 14 13 19 13 23 23 22 22 23 22 23 23 21 20 20 18 17 14 12 11 11 11 11 12 9 9 8 8 8 8 9 7 7 7 8 7 7 5 4 5 4 4
13 17 10 10 16 11 14 18 13 18 18 18 25 24 23 20 21 21 23 21 20 19 17 16 15 14 13 14 12 12 11 11 12 12 10 9 8 7 8 7 7 7 7 6 3 5 3 3 4
13 12 10 9 9 14 13 20 12 20 16 22 27 24 25 21 23 22 21 22 19 19 18 16 16 16 15 14 13 12 13 13 12 10 10 10 9 8 7 7 7 6 5 4 2 3 5 4 4
11 13 13 13 14 12 16 15 16 14 19 23 25 25 26 25 23 23 20 17 19 20 18 17 16 17 16 14 14 14 13 12 11 11 10 9 9 7 7 6 6 6 5 5 4 3 3 4 5
18 19 20 11 16 15 17 11 18 17 16 25 26 26 29 28 26 24 22 19 19 20 19 18 16 16 15 14 14 13 12 12 11 11 10 9 8 7 6 6 5 5 5 4 4 4 5 6 5
Wind_Direction
251 236 245 234 233 234 240 231 248 221 206 93 314 223 261 340 354 18 123 152 140 147 150 159 142 141 136 131 129 130 136 138 142 139 137 138 135 139 133 131 133 133 132 129 128 129 129 128 127
246 210 218 235 241 222 225 225 214 232 112 156 180 222 231 40 64 118 137 150 152 145 151 159 146 140 134 131 132 132 133 132 134 133 135 139 136 138 136 139 140 136 133 131 129 125 123 115 111
238 235 224 226 229 237 231 199 228 206 167 238 246 227 322 100 104 140 127 153 149 154 157 146 149 139 136 133 137 134 133 131 131 134 137 137 135 134 138 141 136 131 132 133 122 110 106 117 102
192 190 247 234 226 225 242 234 223 203 196 215 264 245 127 82 142 134 148 152 152 154 150 138 149 143 140 141 141 137 135 135 135 132 129 129 132 130 129 130 127 130 129 120 114 118 141 50 333
219 218 227 224 235 238 225 246 247 226 231 221 210 236 119 129 110 132 152 156 159 153 153 154 153 146 145 146 143 139 136 133 130 130 131 129 128 128 128 130 130 129 127 126 129 153 200 269 287
203 230 227 224 226 227 208 240 234 235 221 188 197 248 106 108 150 150 156 161 159 151 147 146 154 148 148 148 142 137 133 129 127 126 127 129 129 129 128 131 135 133 148 140 335 295 288 296 298
240 213 232 237 227 217 219 228 227 232 227 215 159 231 93 166 138 150 157 156 154 153 154 154 160 153 144 144 139 136 132 128 125 125 124 125 128 131 134 144 154 169 198 249 261 284 299 298 293
232 253 239 235 232 239 206 223 225 231 226 209 263 235 193 142 158 151 158 162 160 162 154 156 156 164 160 152 136 135 131 128 123 123 123 128 134 141 147 171 178 225 255 284 304 305 298 293 290
241 232 231 226 220 232 216 220 217 229 241 241 218 269 81 134 154 159 158 165 168 167 159 160 160 158 159 151 138 132 130 126 125 133 139 165 175 172 168 87 95 263 281 290 283 284 282 282 265
222 228 234 238 223 240 216 224 223 215 226 229 234 119 131 143 159 169 168 168 170 167 172 160 160 154 150 154 152 156 145 162 168 169 175 195 139 120 334 101 227 269 272 271 260 259 262 253 287
230 246 241 241 263 240 246 211 227 221 227 222 231 199 167 165 168 177 176 176 173 167 172 169 160 162 158 151 163 160 163 154 163 168 183 126 174 162 212 239 210 269 187 277 240 254 266 328 307
243 245 262 242 226 245 236 227 214 234 225 165 64 316 163 186 180 181 182 179 174 170 174 168 165 162 167 154 171 160 157 162 167 168 172 158 208 163 293 312 343 245 323 328 293 307 326 296 303
231 251 235 245 236 242 251 239 234 221 233 175 157 303 173 197 196 192 186 178 177 175 176 174 170 165 158 164 158 168 155 174 151 161 161 184 225 229 263 340 306 328 328 316 323 318 322 316 301
217 235 232 239 235 238 243 237 226 232 223 235 240 219 201 194 199 192 185 181 179 176 176 171 174 150 159 173 163 155 173 144 173 159 149 170 207 173 270 253 291 320 326 339 321 335 317 310 308
245 235 230 242 235 235 233 242 237 233 188 211 247 227 282 202 187 194 190 182 178 177 173 168 170 154 167 158 165 177 165 164 159 151 158 186 198 169 274 289 338 7 334 306 323 329 325 335 314
226 228 238 217 227 230 236 246 223 232 236 236 235 232 205 190 188 191 183 180 177 170 169 157 157 157 161 161 165 168 133 137 137 144 148 172 172 178 205 10 23 1 355 349 353 335 331 329 344
208 228 219 229 207 223 218 241 245 248 230 242 235 228 210 191 193 180 182 176 172 165 163 155 146 169 171 158 160 139 129 144 118 129 132 93 120 109 82 52 34 347 352 78 16 343 328 321 334
208 226 219 225 204 221 229 226 254 220 245 237 225 223 213 187 187 173 184 175 170 162 157 152 166 164 169 154 146 131 135 139 99 77 88 117 119 123 127 117 134 131 22 337 72 339 335 318 311
302 281 268 223 161 260 232 241 218 238 223 223 222 215 212 191 184 182 175 171 169 159 155 157 153 152 163 160 154 149 148 122 110 119 124 131 139 147 160 163 166 149 152 28 48 328 318 302 294
238 249 244 249 253 246 256 235 234 237 234 239 219 212 203 178 188 171 167 168 167 157 154 152 151 154 157 147 149 121 130 122 135 132 129 123 55 39 30 32 31 346 41 86 43 341 309 289 342
235 254 255 269 217 250 273 253 229 232 232 231 231 229 210 184 175 177 172 162 156 153 150 150 151 151 151 130 125 125 133 145 166 169 133 60 57 57 27 31 50 69 47 59 56 353 307 317 351
258 218 260 260 252 242 197 254 203 221 220 221 210 212 203 186 183 179 170 160 145 148 144 146 148 153 147 164 156 164 169 172 136 113 92 82 65 61 65 49 60 49 64 60 58 28 351 352 353
272 274 245 248 251 268 207 246 255 190 211 214 205 200 192 183 183 176 172 153 135 138 153 150 150 163 157 175 175 177 182 152 117 86 112 90 82 71 72 73 64 58 53 59 48 33 10 18 357
271 242 242 240 237 236 233 227 223 184 201 207 194 192 178 182 180 168 159 147 147 151 149 142 151 147 161 176 162 174 149 125 115 124 117 109 106 98 78 65 57 52 50 48 48 36 38 30 18
221 207 197 207 203 241 191 223 256 190 199 205 193 184 175 177 176 159 145 148 154 147 151 132 152 149 157 156 149 143 120 120 127 135 110 131 104 78 55 54 46 61 61 59 45 48 52 43 31
208 209 258 199 209 225 202 212 229 240 222 215 192 181 171 177 170 154 146 148 148 144 143 147 144 144 150 137 134 119 136 116 114 104 105 84 74 68 71 65 61 61 59 57 53 60 51 46 53
199 225 252 304 278 281 180 236 247 237 209 221 189 179 172 169 142 150 152 146 147 141 142 142 142 130 128 131 122 116 110 102 99 91 85 81 98 109 81 74 70 63 60 57 70 60 66 51 22
250 200 201 221 260 220 214 222 227 198 210 206 182 176 162 158 149 159 147 143 138 137 137 138 131 127 128 123 118 109 107 102 99 97 92 92 96 89 87 81 75 74 73 70 15 112 60 33 24
187 226 220 258 249 264 230 217 219 210 193 195 177 174 154 152 157 146 137 127 137 142 132 126 127 127 123 117 117 111 106 105 105 107 108 102 101 101 92 86 80 74 72 61 68 61 48 54 40
221 214 210 228 207 238 277 278 185 209 187 186 176 172 156 156 157 139 131 135 138 133 130 127 130 125 121 120 116 113 113 114 115 112 109 108 101 93 89 85 79 73 76 79 78 58 46 42 38